[[{"header":{"parameterUnit":"m.s-1","parameterCategory":1,"la1":30.2991,"la2":30.254,"lo1":-89.0895,"lo2":-89.0444,"dy":0.0017,"dx":0.0017,"nx":28,"ny":28,"refTime":"2023-04-02T21:00:00:Z","depth":0,"parameterNumber":2,"parameterNumberName":"U-component_of_WINDS"},"data":[0,0,0,0,0,0,0,0,0,0,0,0,0,0,0,0,0,0,0,0,0,0,0,0,0,0,0,0,0,0,0,0,0,0,0,0,0,0,0,0,0,0,0,0,0,0,0,0,0,0,0,0,0,0,0,0,0,0,-4.215,-4.2151,0,-4.226,-4.2261,-4.2262,-4.2269,-4.2268,-4.2267,-4.2266,-4.2377,-4.2381,-4.2385,0,0,0,0,0,0,0,0,0,0,0,0,0,-4.1944,-4.1948,-4.215,-4.2151,-4.2153,-4.226,-4.2261,-4.2263,-4.2269,-4.2268,-4.2266,-4.2265,-4.2375,-4.238,-4.2385,0,0,0,0,0,0,0,0,0,0,0,0,0,-4.2042,-4.1949,-4.215,-4.2169,-4.2172,-4.2259,-4.2261,-4.2263,-4.227,-4.2268,-4.2266,-4.2264,-4.2374,-4.238,-4.2386,-4.2461,0,0,-4.2405,-4.2407,0,0,0,0,0,0,0,0,-4.2036,-4.2049,-4.2165,-4.2168,-4.2171,-4.2249,-4.223,-4.2329,-4.227,-4.2232,-4.2266,-4.2263,-4.2336,-4.2345,-4.2369,-4.2466,-4.2471,-4.2405,-4.2409,-4.2412,-4.2413,0,0,0,0,0,0,0,-4.203,-4.2045,-4.2193,-4.2166,-4.217,-4.2172,-4.2183,-4.2249,-4.2293,-4.2236,-4.2236,-4.2249,-4.2337,-4.2363,-4.2372,-4.2473,-4.2405,-4.241,-4.2414,-4.2417,-4.2637,-4.2639,0,0,0,0,0,0,-4.2019,-4.2039,-4.219,-4.2197,-4.2098,-4.2177,-4.219,-4.2226,-4.2292,-4.2301,-4.2251,-4.2249,-4.2354,-4.2365,-4.2376,-4.2468,-4.2411,-4.2417,-4.2421,-4.2635,-4.2638,-4.264,0,0,0,0,0,0,-4.2015,-4.2033,-4.2185,-4.2118,-4.2138,-4.2182,-4.2222,-4.2229,-4.2255,-4.2304,-4.2312,-4.227,-4.2353,-4.2367,-4.244,-4.2472,-4.242,-4.2426,-4.2632,-4.2636,-4.2639,-4.2653,0,0,0,0,0,0,-4.2009,-4.2031,-4.206,-4.2119,-4.2141,-4.2248,-4.2225,-4.2232,-4.2266,-4.2265,-4.2324,-4.2332,-4.2352,-4.2431,-4.2446,-4.2479,-4.243,-4.263,-4.2634,-4.2638,-4.265,-4.2656,-4.2662,0,0,0,0,0,-4.2002,-4.206,-4.2062,-4.208,-4.2179,-4.225,-4.2262,-4.2285,-4.2269,-4.2298,-4.233,-4.233,-4.2467,-4.2438,-4.2456,-4.2491,-4.2628,-4.2633,-4.2637,-4.2647,-4.2655,-4.2662,0,0,0,0,0,0,-4.2003,-4.2067,-4.2071,-4.2149,-4.2194,-4.2251,-4.2288,-4.2293,-4.2343,-4.234,-4.2366,-4.2379,-4.2451,-4.2479,-4.2446,-4.2568,-4.2545,-4.2554,-4.2547,-4.2555,-4.256,-4.2551,-4.2436,0,0,0,0,0,-4.2012,-4.2065,-4.2119,-4.2183,-4.2205,-4.2243,-4.2275,-4.2289,-4.2336,-4.2355,-4.2391,-4.2437,-4.249,-4.2524,-4.2576,-4.2655,-4.2667,-4.2688,-4.2694,-4.2699,-4.2705,-4.2748,-4.2758,-4.2656,-4.2656,-4.2656,0,0,-4.2032,-4.2074,-4.2105,-4.2184,-4.222,-4.2273,-4.2259,-4.2316,-4.2355,-4.2363,-4.2434,-4.2463,-4.2515,-4.2591,-4.2626,-4.2616,-4.2736,-4.2705,-4.2708,-4.2712,-4.2754,-4.2764,-4.2772,-4.2659,-4.2658,-4.2658,0,0,-4.2095,-4.2133,-4.219,-4.2227,-4.2283,-4.2308,-4.2321,-4.2378,-4.2397,-4.2469,-4.2476,-4.2524,-4.2615,-4.2652,-4.2683,-4.2761,-4.2763,-4.2778,-4.2808,-4.285,-4.2858,-4.2865,-4.2892,-4.2901,-4.2784,-4.2784,-4.2785,0,-4.2112,-4.2193,-4.2219,-4.2276,-4.231,-4.2321,-4.2379,-4.2413,-4.2483,-4.2506,-4.2494,-4.2609,-4.2645,-4.273,-4.2749,-4.2774,-4.279,-4.277,-4.2855,-4.2862,-4.287,-4.2895,-4.2905,-4.2786,-4.2786,-4.2785,-4.2785,0,-4.2211,-4.2267,-4.2307,-4.2374,-4.2413,-4.247,-4.2504,-4.2541,-4.2552,-4.2578,-4.2651,-4.2695,-4.2756,-4.2778,-4.2789,-4.2864,-4.2856,-4.285,-4.2827,-4.288,-4.2905,-4.2915,-4.2788,-4.2787,-4.2787,-4.2786,0,0,-4.2275,-4.2357,-4.2371,-4.2402,-4.2465,-4.2508,-4.2566,-4.2626,-4.2657,-4.2705,-4.2753,-4.2831,-4.2826,-4.2861,-4.2877,-4.2914,-4.2972,-4.2903,-4.2904,-4.2912,-4.3056,-4.3059,-4.307,-4.2975,-4.2977,-4.2978,-4.3051,0,-4.2344,-4.2447,-4.2473,-4.2561,-4.2613,-4.2625,-4.2675,-4.2719,-4.2746,-4.2793,-4.2823,-4.2877,-4.2867,-4.2888,-4.2925,-4.2957,-4.3001,-4.2952,-4.3019,-4.3021,-4.3003,-4.3083,-4.3086,-4.3153,-4.3061,-4.3063,-4.3064,0,-4.2437,-4.2488,-4.2581,-4.2638,-4.266,-4.2705,-4.2762,-4.2808,-4.2858,-4.2875,-4.2915,-4.2928,-4.2988,-4.2965,-4.3048,-4.3014,-4.3044,-4.3064,-4.3067,-4.3072,-4.3044,-4.3089,-4.3175,-4.3184,-4.308,-4.3078,-4.3077,0,-4.2472,-4.2564,-4.2632,-4.2658,-4.2726,-4.2757,-4.2787,-4.2836,-4.287,-4.292,-4.2943,-4.3,-4.303,-4.3073,-4.3101,-4.3081,-4.3182,-4.3161,-4.3196,-4.3196,-4.3215,-4.3213,-4.3305,-4.3237,-4.3237,-4.3237,-4.3237,0,-4.2545,-4.2601,-4.2649,-4.269,-4.2754,-4.2783,-4.2845,-4.2875,-4.2918,-4.2965,-4.298,-4.3024,-4.3059,-4.3107,-4.313,-4.3194,-4.3209,-4.3223,-4.3228,-4.3221,-4.3219,-4.3238,-4.3234,-4.324,-4.3239,-4.3238,-4.3238,0,-4.2594,-4.2629,-4.2703,-4.2762,-4.2778,-4.2822,-4.2872,-4.2913,-4.2941,-4.3,-4.3016,-4.3059,-4.3117,-4.315,-4.3223,-4.3238,-4.331,-4.3313,-4.3293,-4.3294,-4.3328,-4.3323,-4.3434,-4.3449,-4.3373,-4.3374,-4.3374,0,-4.2637,-4.2681,-4.2745,-4.2778,-4.2808,-4.2861,-4.2897,-4.2928,-4.2964,-4.3025,-4.3058,-4.3117,-4.3166,-4.3258,-4.3296,-4.3352,-4.3356,-4.3391,-4.3364,-4.3355,-4.3354,-4.335,-4.3354,-4.3394,-4.3395,-4.3396,-4.3396,0,-4.271,-4.2725,-4.2776,-4.2833,-4.2875,-4.2922,-4.2968,-4.2994,-4.3033,-4.3073,-4.3133,-4.3171,-4.3246,-4.3304,-4.3363,-4.3393,-4.3401,-4.3405,-4.3416,-4.3407,-4.3393,-4.34,-4.3303,-4.3401,-4.3401,-4.34,-4.34,-4.34,-4.2756,-4.2795,-4.2846,-4.2903,-4.2941,-4.2984,-4.3025,-4.3058,-4.3109,-4.3172,-4.3188,-4.3251,-4.33,-4.3381,-4.3413,-4.3462,-4.3456,-4.3472,-4.3476,-4.3479,-4.3479,-4.3387,-4.3473,-4.3473,-4.3473,-4.3473,-4.3473,0,-4.2827,-4.2861,-4.2913,-4.2977,-4.3022,-4.3027,-4.3078,-4.3115,-4.317,-4.3216,-4.3264,-4.3333,-4.339,-4.3433,-4.3491,-4.3522,-4.3527,-4.3536,-4.3533,-4.354,-4.3482,-4.3466,-4.3531,-4.3531,-4.3531,-4.3531,-4.3531,-4.3531,-4.287,-4.2936,-4.2958,-4.3043,-4.3077,-4.3139,-4.3167,-4.3207,-4.3244,-4.332,-4.3368,-4.3396,-4.3441,-4.3502,-4.3554,-4.3566,-4.3586,-4.3594,-4.3605,-4.355,-4.3544,-4.3538,-4.3523,-4.3598,-4.3599,-4.3658,-4.3659,-4.3659]},{"header":{"parameterUnit":"m.s-1","parameterCategory":1,"la1":30.2991,"la2":30.254,"lo1":-89.0895,"lo2":-89.0444,"dy":0.0017,"dx":0.0017,"nx":28,"ny":28,"refTime":"2023-04-02T21:00:00:Z","depth":0,"parameterNumber":3,"parameterNumberName":"V-component_of_WINDS"},"data":[0,0,0,0,0,0,0,0,0,0,0,0,0,0,0,0,0,0,0,0,0,0,0,0,0,0,0,0,0,0,0,0,0,0,0,0,0,0,0,0,0,0,0,0,0,0,0,0,0,0,0,0,0,0,0,0,0,0,4.3507,4.3508,0,4.3565,4.3566,4.3567,4.3572,4.3572,4.3571,4.357,4.3629,4.3632,4.3634,0,0,0,0,0,0,0,0,0,0,0,0,0,4.3402,4.3404,4.3507,4.3508,4.3509,4.3565,4.3566,4.3567,4.3572,4.3572,4.3571,4.357,4.3629,4.3631,4.3634,0,0,0,0,0,0,0,0,0,0,0,0,0,4.3453,4.3405,4.3507,4.3518,4.352,4.3565,4.3566,4.3567,4.3572,4.3572,4.3571,4.357,4.3628,4.3631,4.3634,4.3672,0,0,4.3644,4.3645,0,0,0,0,0,0,0,0,4.345,4.3457,4.3516,4.3517,4.3519,4.3561,4.3551,4.3602,4.3573,4.3552,4.357,4.3569,4.3607,4.3612,4.3625,4.3675,4.3678,4.3644,4.3646,4.3648,4.3649,0,0,0,0,0,0,0,4.3446,4.3454,4.353,4.3517,4.3519,4.3521,4.3527,4.3561,4.3584,4.3554,4.3555,4.3562,4.3608,4.3622,4.3626,4.3678,4.3644,4.3647,4.3649,4.365,4.3767,4.3768,0,0,0,0,0,0,4.3441,4.3451,4.3528,4.3532,4.3482,4.3523,4.353,4.3548,4.3584,4.3588,4.3562,4.3562,4.3617,4.3623,4.3629,4.3678,4.3648,4.3651,4.3652,4.3765,4.3767,4.3768,0,0,0,0,0,0,4.3438,4.3447,4.3526,4.3492,4.3502,4.3526,4.3546,4.355,4.3564,4.359,4.3594,4.3572,4.3616,4.3624,4.3662,4.368,4.3652,4.3655,4.3764,4.3766,4.3767,4.3776,0,0,0,0,0,0,4.3435,4.3447,4.3461,4.3492,4.3504,4.3558,4.3547,4.3552,4.3569,4.3569,4.36,4.3605,4.3616,4.3658,4.3665,4.3684,4.3657,4.3763,4.3765,4.3767,4.3774,4.3778,4.3781,0,0,0,0,0,4.3432,4.346,4.3461,4.3471,4.3522,4.3559,4.3566,4.3579,4.3571,4.3586,4.3603,4.3604,4.3677,4.3661,4.367,4.369,4.3761,4.3764,4.3767,4.3773,4.3777,4.3781,0,0,0,0,0,0,4.3429,4.3464,4.3466,4.3505,4.3529,4.356,4.3579,4.3582,4.3609,4.3608,4.3622,4.363,4.3668,4.3683,4.3665,4.3731,4.3718,4.3723,4.372,4.3724,4.3727,4.3723,4.366,0,0,0,0,0,4.3433,4.346,4.3489,4.3521,4.3533,4.3554,4.3571,4.3579,4.3604,4.3615,4.3635,4.3659,4.3688,4.3707,4.3734,4.3776,4.3784,4.3794,4.3798,4.38,4.3804,4.3831,4.3836,4.3777,4.3777,4.3777,0,0,4.3441,4.3464,4.348,4.3521,4.3541,4.357,4.3563,4.3592,4.3614,4.3619,4.3657,4.3673,4.3702,4.3743,4.3762,4.3756,4.3823,4.3804,4.3806,4.3808,4.3834,4.384,4.3845,4.3778,4.3778,4.3778,0,0,4.3472,4.3491,4.3521,4.3541,4.3572,4.3586,4.3593,4.3624,4.3635,4.3674,4.3679,4.3706,4.3754,4.3775,4.3793,4.3835,4.3837,4.3843,4.3861,4.3886,4.3891,4.3895,4.3913,4.3918,4.3847,4.3847,4.3847,0,4.3478,4.3522,4.3536,4.3567,4.3586,4.3593,4.3624,4.3643,4.3681,4.3694,4.3688,4.3751,4.3771,4.3818,4.3829,4.3842,4.3852,4.384,4.3889,4.3894,4.3898,4.3915,4.3921,4.3848,4.3848,4.3848,4.3848,0,4.353,4.356,4.3581,4.3619,4.364,4.3671,4.3691,4.3711,4.3718,4.3733,4.3774,4.3798,4.3833,4.3844,4.385,4.3894,4.389,4.3886,4.3874,4.3904,4.392,4.3927,4.3849,4.3849,4.3848,4.3848,0,0,4.3559,4.3606,4.3614,4.3632,4.3668,4.3692,4.3724,4.3759,4.3777,4.3803,4.3832,4.3874,4.3872,4.3892,4.3901,4.3923,4.3958,4.3917,4.3918,4.3926,4.4011,4.4015,4.4022,4.396,4.3961,4.3962,4.4009,0,4.3595,4.3653,4.3668,4.3717,4.3747,4.3755,4.3784,4.381,4.3825,4.3853,4.3871,4.3902,4.3895,4.3908,4.393,4.3949,4.3976,4.3946,4.3988,4.399,4.3982,4.403,4.4033,4.4076,4.4015,4.4016,4.4017,0,4.3644,4.3673,4.3726,4.3761,4.3774,4.3799,4.3834,4.386,4.389,4.3901,4.3924,4.3932,4.3968,4.3954,4.4004,4.3984,4.4002,4.4015,4.4017,4.4022,4.4006,4.4038,4.4089,4.4097,4.4027,4.4026,4.4025,0,4.3663,4.3715,4.3755,4.377,4.3811,4.3829,4.3847,4.3876,4.3897,4.3927,4.3942,4.3975,4.3994,4.402,4.4038,4.4025,4.4088,4.4074,4.4099,4.4098,4.4112,4.4111,4.4169,4.4121,4.4121,4.4121,4.4121,0,4.3702,4.3735,4.3764,4.3788,4.3826,4.3844,4.3881,4.3899,4.3926,4.3955,4.3963,4.3991,4.4011,4.4042,4.4056,4.4097,4.4105,4.4115,4.4119,4.4115,4.4114,4.4128,4.4126,4.4123,4.4122,4.4122,4.4122,0,4.3729,4.375,4.3794,4.383,4.384,4.3867,4.3898,4.3923,4.394,4.3977,4.3986,4.4013,4.405,4.407,4.4115,4.4125,4.4172,4.4173,4.4162,4.4164,4.4188,4.4186,4.4258,4.4269,4.4212,4.4213,4.4213,0,4.3754,4.3779,4.3819,4.384,4.3858,4.3891,4.3913,4.3932,4.3955,4.3993,4.4014,4.4051,4.4082,4.4141,4.4164,4.42,4.4203,4.4226,4.4208,4.4205,4.4206,4.4205,4.4209,4.4229,4.423,4.423,4.4231,0,4.3796,4.3806,4.3837,4.3873,4.39,4.3929,4.3958,4.3974,4.3998,4.4024,4.4062,4.4086,4.4134,4.4172,4.421,4.4229,4.4235,4.4236,4.4244,4.4241,4.4235,4.4241,4.4172,4.4234,4.4234,4.4234,4.4233,4.4233,4.3824,4.3848,4.3881,4.3917,4.3941,4.3969,4.3995,4.4016,4.4049,4.409,4.4099,4.414,4.4172,4.4225,4.4245,4.4278,4.4274,4.4285,4.4288,4.4291,4.4293,4.4229,4.4285,4.4285,4.4285,4.4285,4.4285,0,4.3868,4.389,4.3923,4.3965,4.3993,4.3997,4.403,4.4054,4.409,4.412,4.4151,4.4197,4.4234,4.4262,4.4301,4.4322,4.4326,4.4332,4.4332,4.4337,4.4293,4.4284,4.4329,4.4329,4.4329,4.4329,4.4329,4.4329,4.3895,4.3938,4.3952,4.4008,4.403,4.4071,4.409,4.4116,4.414,4.4191,4.4223,4.4241,4.4271,4.4313,4.4348,4.4356,4.437,4.4377,4.4384,4.4344,4.4339,4.4335,4.4326,4.4379,4.4379,4.4425,4.4426,4.4426]}]]